This is the latest recevied weather packets stored in our database for station/object W4ZHA. If no packets are shown the sender has not sent any weather packets the latest 10 day(s).
| Time | Temp. | Humidity | Pressure | Rain* | Wind** | Luminosity | Snow |
|---|---|---|---|---|---|---|---|
| 1777653829 | 19.44° C | 51% | 1014.8 hPa | 0 mm | - | 322 W/m² | - |
| 1777653525 | 18.89° C | 51% | 1014.8 hPa | 0 mm | - | 345 W/m² | - |
| 1777653221 | 19.44° C | 51% | 1014.8 hPa | 0 mm | - | 375 W/m² | - |
| 1777652918 | 18.89° C | 53% | 1015.1 hPa | 0 mm | - | 377 W/m² | - |
| 1777652615 | 19.44° C | 52% | 1015.1 hPa | 0 mm | - | 316 W/m² | - |
| 1777652312 | 18.89° C | 52% | 1015.1 hPa | 0 mm | - | 352 W/m² | - |
| 1777652009 | 19.44° C | 51% | 1015.5 hPa | 0 mm | - | 359 W/m² | - |
| 1777651705 | 18.33° C | 52% | 1015.5 hPa | 0 mm | - | 361 W/m² | - |
| 1777651402 | 18.89° C | 52% | 1015.8 hPa | 0 mm | - | 402 W/m² | - |
| 1777651100 | 20° C | 50% | 1015.8 hPa | 0 mm | - | 427 W/m² | - |
| 1777650796 | 19.44° C | 51% | 1015.5 hPa | 0 mm | - | 389 W/m² | - |
| 1777650493 | 18.89° C | 52% | 1015.8 hPa | 0 mm | - | 409 W/m² | - |
| 1777650190 | 19.44° C | 54% | 1015.8 hPa | 0 mm | - | 396 W/m² | - |
| 1777649888 | 18.33° C | 57% | 1015.8 hPa | 0 mm | - | 390 W/m² | - |
| 1777649585 | 18.33° C | 58% | 1015.8 hPa | 0 mm | - | 154 W/m² | - |
| 1777649281 | 18.33° C | 59% | 1015.5 hPa | 0 mm | - | 209 W/m² | - |
| 1777648978 | 17.22° C | 54% | 1015.5 hPa | 0 mm | - | 154 W/m² | - |
| 1777648675 | 16.67° C | 54% | 1015.8 hPa | 0 mm | - | 314 W/m² | - |
| 1777648371 | 18.33° C | 59% | 1015.8 hPa | 0 mm | - | 283 W/m² | - |
| 1777648068 | 17.78° C | 57% | 1015.8 hPa | 0 mm | - | 138 W/m² | - |
| 1777647764 | 17.22° C | 57% | 1015.8 hPa | 0 mm | - | 138 W/m² | - |
| 1777647460 | 17.78° C | 59% | 1015.8 hPa | 0 mm | - | 151 W/m² | - |
| 1777647158 | 17.78° C | 59% | 1015.8 hPa | 0 mm | - | 169 W/m² | - |
| 1777646854 | 16.67° C | 60% | 1015.8 hPa | 0 mm | - | 166 W/m² | - |
| 1777646550 | 16.11° C | 59% | 1015.8 hPa | 0 mm | - | 167 W/m² | - |
* Rain latest hour (hover to see other rain measurements)
** Current wind speed in m/s (hover to see current wind gust speed)